Погода в Шахрисабзе

Узбекистан     39°03′36″N   66°49′45″E
темп.,
°C
ветер,
м/с
пор.,
м/с
влажн.,
%
обл.,
%
осадки,
мм/ч
давл.,
гПа
погр.,
м
30 июня, чт
чт3023:00+31вюв23140 0.0 100017
02:00+30в22150 0.0 100016
05:00+29в33130 0.0 100018
08:00+35ссз11100 0.0 1001252
11:00+42з3380 0.0 10002538
14:00+44зсз9770 0.0 9994244
17:00+41ссв86110 0.0 9981875
20:00+33всв47190 0.0 1000122
1 июля, пт
пт123:00+28всв47240 0.0 1002102
02:00+25св34270 0.0 100246
05:00+24св34280 0.0 100355
08:00+31св34200 0.0 1003384
11:00+38ссз33100 0.0 10021300
14:00+41с7560 0.0 10002757
17:00+38с7590 0.0 10011865
20:00+30св34170 0.0 100240
2 июля, сб
сб223:00+27всв45220 0.0 100367
02:00+25всв33240 0.0 100232
05:00+25всв33210 0.0 100225
08:00+32св34150 0.0 1002362
11:00+39ссв3370 0.0 10001301
14:00+43ссв6460 0.0 9972626
17:00+41ссв6680 0.0 9971325
20:00+32всв45160 0.0 99752
3 июля, вс
вс323:00+29всв45200 0.0 99863
02:00+29всв33180 0.0 99726
05:00+28всв33170 0.0 99726
08:00+36с11110 0.0 997286
11:00+42з3270 0.0 9961502
14:00+45з5370 0.0 9953243
17:00+44сз9680 0.0 9943044
20:00+36сз46130 0.0 99685
4 июля, пн
пн423:00+31юз46160 0.0 99880
02:00+28ююз57210 0.0 1000135
05:00+25ю35230 0.0 100392
08:00+28ююз55220 0.0 1005639
11:00+33юз44160 0.0 10051541
14:00+37зсз86150 0.0 10042480
17:00+35зсз97140 0.0 10052031
20:00+28зсз611170 0.0 1006363